Weather reports worldwide

Advertisment
Ploce, Croatia (14462): temperature & dewpoint: 15.05.2019 05:00:00 - 21.05.2019 05:00:00 (CEST)Ploce, Croatia (14462): wind speed: 15.05.2019 05:00:00 - 21.05.2019 05:00:00 (CEST)Ploce, Croatia (14462): wind direction: 15.05.2019 05:00:00 - 21.05.2019 05:00:00 (CEST)Ploce, Croatia (14462): reduced air pressure: 15.05.2019 05:00:00 - 21.05.2019 05:00:00 (CEST)Ploce, Croatia (14462): visibility: 15.05.2019 05:00:00 - 21.05.2019 05:00:00 (CEST)
Date & Time tt [°C] td [°C] ff [km/h] ff [kn] dd ppp [hPa] vv [km]
21.05.2019 05:00:00 13,2 12,2 4 2 NE 1011,5 -
21.05.2019 04:00:00 - - - - - - -
21.05.2019 03:00:00 - - - - - - -
21.05.2019 02:00:00 15,0 11,5 14 8 E 1012,2 -
21.05.2019 01:00:00 - - - - - - -
21.05.2019 00:00:00 - - - - - - -
20.05.2019 23:00:00 15,1 11,4 11 6 E 1012,2 -
20.05.2019 22:00:00 15,6 11,6 11 6 E 1011,6 30
20.05.2019 21:00:00 15,8 12,0 11 6 SE 1011,1 30
20.05.2019 20:00:00 16,6 12,4 22 12 S 1010,7 30
20.05.2019 19:00:00 15,7 13,6 7 4 E 1010,7 -
20.05.2019 18:00:00 18,2 11,1 22 12 SSE 1010,8 -
20.05.2019 17:00:00 18,7 10,1 - - - 1011,2 -
20.05.2019 16:00:00 20,1 10,8 - - - 1011,1 -
20.05.2019 15:00:00 19,5 10,6 25 14 SSE 1010,7 30
20.05.2019 14:00:00 20,6 9,9 18 10 S 1010,5 30
20.05.2019 13:00:00 18,6 10,9 18 10 S 1010,5 30
20.05.2019 12:00:00 18,9 9,6 18 10 S 1009,9 30
20.05.2019 11:00:00 19,3 10,1 18 10 SSE 1009,8 30
20.05.2019 10:00:00 17,9 10,0 18 10 SE 1009,1 30
20.05.2019 09:00:00 17,8 11,3 18 10 SE 1008,5 30
20.05.2019 08:00:00 17,9 11,0 11 6 SSE 1007,7 30
20.05.2019 07:00:00 15,9 12,5 7 4 ESE 1007,7 -
20.05.2019 06:00:00 13,5 12,0 7 4 E 1007,5 -
20.05.2019 05:00:00 14,1 12,4 7 4 E 1007,2 -
20.05.2019 04:00:00 - - - - - - -
20.05.2019 03:00:00 - - - - - - -
20.05.2019 02:00:00 15,6 13,3 7 4 E 1007,2 -
20.05.2019 01:00:00 - - - - - - -
20.05.2019 00:00:00 - - - - - - -
19.05.2019 23:00:00 15,5 13,6 4 2 E 1007,0 -
19.05.2019 22:00:00 17,0 13,7 11 6 SE 1006,6 15
19.05.2019 21:00:00 17,2 13,7 11 6 SE 1006,3 15
19.05.2019 20:00:00 16,8 13,8 7 4 E 1005,8 15
19.05.2019 19:00:00 17,6 13,4 11 6 SE 1005,6 -
19.05.2019 18:00:00 17,6 14,6 7 4 SSE 1005,6 -
19.05.2019 17:00:00 18,3 13,7 14 8 SSE 1005,4 -
19.05.2019 16:00:00 19,4 12,7 18 10 S 1005,1 -
19.05.2019 15:00:00 20,2 11,2 25 14 SE 1005,0 30
19.05.2019 14:00:00 21,2 10,5 18 10 ESE 1004,7 30
19.05.2019 13:00:00 21,6 11,8 14 8 E 1005,2 30
19.05.2019 12:00:00 18,8 13,4 11 6 ENE 1005,5 30
19.05.2019 11:00:00 17,2 13,2 7 4 ENE 1006,2 30
19.05.2019 10:00:00 15,5 12,4 4 2 SE 1006,3 30
19.05.2019 09:00:00 15,5 12,1 7 4 E 1006,7 30
19.05.2019 08:00:00 14,1 12,0 7 4 E 1006,7 30
19.05.2019 07:00:00 12,8 11,3 4 2 NNE 1007,2 -
19.05.2019 06:00:00 11,8 11,1 7 4 NNE 1007,3 -
19.05.2019 05:00:00 12,0 11,3 4 2 NNE 1007,5 -
19.05.2019 04:00:00 - - - - - - -
19.05.2019 03:00:00 - - - - - - -
19.05.2019 02:00:00 12,4 11,7 4 2 NE 1008,7 -
19.05.2019 01:00:00 - - - - - - -
19.05.2019 00:00:00 - - - - - - -
18.05.2019 23:00:00 13,0 12,0 7 4 ENE 1009,6 -
18.05.2019 22:00:00 13,0 11,4 4 2 NNE 1009,5 30
18.05.2019 21:00:00 14,0 11,9 0 0 N 1009,3 20
18.05.2019 20:00:00 14,5 11,5 14 8 NNE 1009,3 30
18.05.2019 19:00:00 14,8 12,4 18 10 N 1009,6 -
18.05.2019 18:00:00 14,7 13,1 14 8 NNE 1010,2 -
18.05.2019 17:00:00 15,1 12,7 4 2 S 1011,1 -
18.05.2019 16:00:00 15,8 12,6 14 8 S 1010,9 -
18.05.2019 15:00:00 19,0 11,9 14 8 SE 1009,7 20
18.05.2019 14:00:00 20,0 12,5 18 10 SE 1009,7 20
18.05.2019 13:00:00 19,5 11,2 22 12 SE 1009,4 20
18.05.2019 12:00:00 21,0 8,9 22 12 SE 1010,0 30
18.05.2019 11:00:00 21,0 8,7 22 12 SE 1010,1 30
18.05.2019 10:00:00 20,0 9,3 14 8 E 1009,9 30
18.05.2019 09:00:00 18,1 10,7 7 4 E 1009,9 30
18.05.2019 08:00:00 15,9 11,8 7 4 ENE 1009,8 30
18.05.2019 07:00:00 14,1 10,6 0 0 N 1010,3 -
18.05.2019 06:00:00 11,6 10,1 0 0 N 1009,9 -
18.05.2019 05:00:00 12,1 10,2 7 4 ENE 1009,6 -
18.05.2019 04:00:00 - - - - - - -
18.05.2019 03:00:00 - - - - - - -
18.05.2019 02:00:00 12,1 10,4 4 2 ENE 1010,3 -
18.05.2019 01:00:00 - - - - - - -
18.05.2019 00:00:00 - - - - - - -
17.05.2019 23:00:00 13,8 11,7 4 2 NNW 1010,4 -
17.05.2019 22:00:00 15,1 12,7 0 0 N 1009,7 30
17.05.2019 21:00:00 16,5 13,8 7 4 E 1009,7 30
17.05.2019 20:00:00 18,2 10,8 4 2 ESE 1009,7 30
17.05.2019 19:00:00 19,8 10,0 11 6 WSW 1009,6 -
17.05.2019 18:00:00 20,6 9,9 11 6 W 1009,4 -
17.05.2019 17:00:00 21,1 9,7 11 6 W 1009,7 -
17.05.2019 16:00:00 21,7 8,3 11 6 WSW 1010,1 -
17.05.2019 15:00:00 21,5 9,8 14 8 WSW 1010,3 30
17.05.2019 14:00:00 21,4 9,4 14 8 WSW 1010,5 30
17.05.2019 13:00:00 20,8 9,1 11 6 SSW 1010,6 30
17.05.2019 12:00:00 20,2 10,8 11 6 SSW 1010,8 30
17.05.2019 11:00:00 19,0 10,5 11 6 SSW 1011,1 30
17.05.2019 10:00:00 17,8 10,3 7 4 ESE 1011,3 30
17.05.2019 09:00:00 15,5 10,4 4 2 S 1011,4 30
17.05.2019 08:00:00 13,4 10,0 7 4 ESE 1011,4 30
17.05.2019 07:00:00 12,1 9,7 4 2 ENE 1011,5 -
17.05.2019 06:00:00 9,9 9,0 0 0 N 1011,2 -
17.05.2019 05:00:00 10,4 9,1 4 2 ENE 1010,9 -
17.05.2019 04:00:00 - - - - - - -
17.05.2019 03:00:00 - - - - - - -
17.05.2019 02:00:00 11,8 9,3 4 2 W 1011,3 -
17.05.2019 01:00:00 - - - - - - -
17.05.2019 00:00:00 - - - - - - -
16.05.2019 23:00:00 13,8 9,3 4 2 NNW 1011,7 -
16.05.2019 22:00:00 15,6 10,5 7 4 NNW 1011,2 30
16.05.2019 21:00:00 16,5 11,3 7 4 NNW 1010,9 30
16.05.2019 20:00:00 17,1 10,7 7 4 WNW 1010,5 30
16.05.2019 19:00:00 17,9 10,8 7 4 NNW 1010,4 -
16.05.2019 18:00:00 18,4 10,1 - - - 1010,1 -
16.05.2019 17:00:00 19,2 10,3 - - - 1009,9 -
16.05.2019 16:00:00 19,4 9,4 14 8 W 1009,7 -
16.05.2019 15:00:00 20,7 7,8 14 8 WSW 1009,8 30
16.05.2019 14:00:00 20,2 7,3 14 8 SW 1009,9 30
16.05.2019 13:00:00 19,7 8,3 11 6 SW 1010,0 30
16.05.2019 12:00:00 17,8 8,9 18 10 SW 1010,3 30
16.05.2019 11:00:00 17,1 7,8 7 4 SSE 1010,6 30
16.05.2019 10:00:00 17,7 8,3 14 8 NNE 1010,7 30
16.05.2019 09:00:00 15,6 8,7 14 8 ENE 1010,9 30
16.05.2019 08:00:00 13,1 11,0 4 2 ESE 1010,9 30
16.05.2019 07:00:00 11,1 9,9 4 2 ESE 1010,9 -
16.05.2019 06:00:00 9,8 9,3 0 0 N 1010,8 -
16.05.2019 05:00:00 - - - - - - -
16.05.2019 04:00:00 - - - - - - -
16.05.2019 03:00:00 - - - - - - -
16.05.2019 02:00:00 - - - - - - -
16.05.2019 01:00:00 - - - - - - -
16.05.2019 00:00:00 - - - - - - -
15.05.2019 23:00:00 - - - - - - -
15.05.2019 22:00:00 13,6 11,3 4 2 NNW 1012,2 30
15.05.2019 21:00:00 13,7 12,1 4 2 ENE 1012,1 30
15.05.2019 20:00:00 14,7 11,7 7 4 SE 1011,8 30
15.05.2019 19:00:00 - - - - - - -
15.05.2019 18:00:00 14,7 11,4 11 6 E 1011,8 -
15.05.2019 17:00:00 15,3 11,7 14 8 E 1011,9 -
15.05.2019 16:00:00 16,6 10,5 11 6 WSW 1011,8 -
15.05.2019 15:00:00 16,2 10,0 7 4 ESE 1011,8 30
15.05.2019 14:00:00 15,4 9,5 11 6 SE 1012,0 30
15.05.2019 13:00:00 13,4 8,4 14 8 E 1012,2 30
15.05.2019 12:00:00 14,1 8,6 11 6 ESE 1012,2 30
15.05.2019 11:00:00 13,1 6,6 14 8 NNE 1012,2 30
15.05.2019 10:00:00 12,0 7,2 22 12 NNE 1012,2 30
15.05.2019 09:00:00 11,1 5,5 18 10 NNE 1012,0 30
15.05.2019 08:00:00 10,8 4,9 7 4 ESE 1011,9 30
15.05.2019 07:00:00 10,3 5,9 4 2 SSE 1011,7 -
15.05.2019 06:00:00 10,6 3,9 - - - 1011,3 -
15.05.2019 05:00:00 11,1 2,7 - - - 1011,0 -

tt = temperature
td = dewpoint
ff = wind speed
dd = wind direction
ppp = reduced air pressure
vv = visibility

Next stations